Regional Weather Roundup
Issued by NWS Austin/San Antonio, TX

Home | Current Version | Previous Version | Text Only | Print | Product List | Glossary On
Versions: 1 2 3 4 5 6 7 8 9 10 11 12 13 14 15 16 17 18 19 20 21 22 23 24 25 26 27 28 29 30 31 32 33 34 35 36 37 38 39 40 41 42 43 44 45 46 47 48 49 50
000
ASUS44 KEWX 201110
RWREWX
SOUTH TEXAS REGIONAL WEATHER ROUNDUP
NATIONAL WEATHER SERVICE AUSTIN/SAN ANTONIO TX
600 AM CDT FRI OCT 20 2017

NOTE: "FAIR" INDICATED FEW OR NO CLOUDS BELOW 12,000 FEET WITH NO
SIGNIFICANT WEATHER AND/OR OBSTRUCTIONS TO VISIBILITY.

* - THESE STATIONS ARE NOT NWS OR FAA STATIONS...AND ARE NOT SUBJECT
    TO NWS AND FAA QUALITY CONTROL.

TXZ171-172-183>190-201200-
TEXAS HILL COUNTRY AND EDWARDS PLATEAU

CITY           SKY/WX    TMP DP  RH WIND       PRES   REMARKS
JUNCTION       MOCLDY    65  61  87 CALM      30.05F
*LLANO         FAIR      61  59  94 CALM      30.09R
BURNET         FAIR      63  59  87 E3        30.07F
*HORSESHOE BAY FAIR      60  59  98 CALM      30.05F
*KERRVILLE     FAIR      63  60  92 CALM      30.05F
*FREDERICKSBRG MOCLDY    63  60  92 CALM      30.06S
*ROCKSPRINGS   NOT AVBL
*BOERNE STAGE  CLOUDY    63  61  94 CALM      30.05F
*CASTROVILLE   CLOUDY    67  65  92 CALM      30.04S
HONDO          MOCLDY    66  63  90 CALM      30.02F
*UVALDE        CLOUDY    67  64  88 E5        30.03S
DEL RIO        CLOUDY    68  66  93 SE9       30.01S
LAUGHLIN AFB   CLOUDY    68  64  87 SE10      30.02R
CARRIZO SPRGS  CLOUDY    68  64  88 E5        30.00S
*EAGLE PASS    NOT AVBL
$$

TXZ173-191>194-202-209-217>225-228-201200-
CENTRAL AND SOUTH CENTRAL TEXAS

CITY           SKY/WX    TMP DP  RH WIND       PRES   REMARKS
GEORGETOWN     MOCLDY    63  60  90 N3        30.07R
AUSTIN/BERGSTM MOCLDY    64  63  96 N3        30.03F
AUSTIN/MABRY   MOCLDY    67  61  81 CALM      30.05R
*AUSTIN/EXEC   MOCLDY    64  61  88 CALM      30.05S
*LAGO VISTA    FAIR      65  62  90 CALM      30.06R
SAN MARCOS     CLOUDY    67  63  87 N6        30.03S
NEW BRAUNFELS  CLOUDY    66  64  93 NW5       30.02R
RANDOLPH AFB   CLOUDY    68  65  89 NE3       30.02S
PT SAN ANTONIO CLOUDY    68  65  88 N5        30.00S
SAN ANTONIO    CLOUDY    68  63  84 N5        30.03S
STINSON FIELD  CLOUDY    71  66  84 NE6       30.00S
*LA GRANGE     FAIR      69  66  89 CALM      30.01R
*GIDDINGS      CLOUDY    68  62  81 CALM      30.03F
*GONZALES      CLOUDY    68  67  98 NE6       30.01S
$$

TXZ163>164-176>182-195>201-210>213-226-227-235-201200-
SOUTHEAST TEXAS

CITY           SKY/WX    TMP DP  RH WIND       PRES   REMARKS
COLLEGE STN    FAIR      68  64  87 NE5       30.03S
*BRYAN         MOCLDY    64  64 100 N3        30.05R
*CALDWELL      CLOUDY    66  63  90 NW3       30.04S
*CROCKETT        N/A     66  63  88 E6        30.07S
*BRENHAM       CLOUDY    68  67  96 CALM      30.03R
HUNTSVILLE     FAIR      70  66  87 VRB5      30.04R
CONROE         FAIR      67  67 100 E8        30.04R
HOUSTON BUSH   TSTM      70  68  93 E12       30.04R
HOUSTON HOBBY  TSTM      73  69  87 NE10G20   30.04S
*HOUSTON SW AP MOCLDY    70  69  97 E7        30.04S
PEARLAND       LGT RAIN  75  69  81 E8        30.05S
HOUSTON HOOKS  HVY RAIN  69  67  93 SE8       30.06R FOG
ELLINGTON FLD  LGT RAIN  72  72 100 S12G29    30.04S
SUGAR LAND     FAIR      73  71  93 E10       30.02R
*HOUSTON EXEC  CLOUDY    68  68 100 E10       30.04R FOG
*CLEVELAND MUN FAIR      67  64  90 CALM      30.06S
*WHARTON       FAIR      70  68  94 NE5       30.02R
*COLUMBUS      MOCLDY    69  67  95 W3        30.03R
*EAGLE LAKE    PTSUNNY   71  70  99 E7        30.02R
$$

TXZ214>216-236>238-201200-
THE UPPER TEXAS COAST

CITY           SKY/WX    TMP DP  RH WIND       PRES   REMARKS
*ORANGE        FAIR      72  70  94 E8        30.09S
PORT ARTHUR    LGT RAIN  72  69  90 E14       30.06S
GALVESTON      LGT RAIN  78  74  87 SE17      30.03R
ANGLETON       CLOUDY    73  71  93 NE7       30.03R
*BAY CITY      FAIR      71  71 100 NE8       30.01R
PALACIOS       FAIR      69  69 100 CALM      29.99R
$$

TXZ229>234-239>247-201200-
TEXAS COASTAL BEND AND RIO GRANDE PLAINS

CITY           SKY/WX    TMP DP  RH WIND       PRES   REMARKS
VICTORIA       FAIR      70  68  93 E8        30.00R
*BEEVILLE      CLOUDY   N/A N/A N/A E6        29.99R
ROCKPORT       FAIR      69  69 100 E3        29.98R FOG
*PORT ARANSAS  NOT AVBL
*PORT LAVACA   MOCLDY    70  68  94 E7        30.00R
*INGLESIDE     NOT AVBL
CORPUS CHRISTI FAIR      71  71 100 CALM      29.98R
CORPUS NAS     FAIR      74  72  93 N3        29.97R
*ROBSTOWN      MOCLDY    71  70  96 N3        29.98S
ALICE          MOCLDY    71  69  93 CALM      29.98R
KINGSVILLE NAS FOG       69  69 100 CALM      29.98R VSB 3/4
COTULLA        CLOUDY    70  66  87 E5        30.00S
*FAITH RANCH   CLOUDY    70  70 100 CALM      30.00S
LAREDO         FAIR      69  68  96 E5        29.99S
$$

TXZ248>255-201200-
DEEP SOUTH TEXAS

CITY           SKY/WX    TMP DP  RH WIND       PRES   REMARKS
BROWNSVILLE    FAIR      69  69 100 CALM      29.97S
PORT ISABEL    FAIR      67  66  97 CALM      29.96S
*SOUTH PADRE   NOT AVBL
HARLINGEN      FOG       68  68 100 CALM      29.96S VSB 1/2
*HEBBRONVILLE  CLOUDY    69  67  95 CALM      30.00S FOG
MCALLEN        FAIR      73  70  90 E6        29.97S
*WESLACO       FAIR      70  68  95 CALM      29.96F
FALFURRIAS     CLOUDY    72  70  95 CALM      29.97F VSB 1/4
EDINBURG       FOG       68  66  93 CALM      29.97S VSB 1/4
*ZAPATA        FAIR      69  69  99 CALM      29.98R
$$

TXZ213>215-236>238-242>244-246-247-251-254-255-201200-
CMAN STATIONS

STATION/POSITION TIME  TEMP    WIND        PRES    WAVE
                       AIR SEA DIR/SP/G            HT/PER
                 (UTC) (F)     (DEG/KT/KT) (MB)    (FT/S)
SABINE PASS      1036   73 77   60/ 11/ 13 1018.9
SEA RIM ST PARK  1100   73      70/  6/  8 1018.4
NORTH JETTY/GLS  1036      77  130/ 19/ 21 1016.5
EAGLE POINT      1036   75 74  130/  9/ 13 1017.1
MORGANS POINT    1036   73 77   40/ 10/ 13 1017.0
PORT O`CONNOR    1036   74 77  330/  2/  2 1014.9
MALAQUITE BEACH  1036   75 78  220/  4/  5 1014.4
BAFFIN BAY       1036   74 76  190/  4/  5 1015.0
PORT ISABEL      1036   74 78     CALM     1014.4
$$



USA.gov is the U.S. government's official web portal to all federal, state and local government web resources and services.